This is the latest recevied weather packets stored in our database for station/object N8QF. If no packets are shown the sender has not sent any weather packets the latest 10 day(s).
| Time | Temp. | Humidity | Pressure | Rain* | Wind** | Luminosity | Snow |
|---|---|---|---|---|---|---|---|
| 1778076829 | 10° C | 76% | 1011.3 hPa | 11.68 mm | - | - | - |
| 1778076529 | 10° C | 72% | 1011.2 hPa | 11.68 mm | - | - | - |
| 1778076226 | 10° C | 76% | 1011.3 hPa | 11.68 mm | - | - | - |
| 1778075926 | 10° C | 76% | 1011.2 hPa | 11.68 mm | - | - | - |
| 1778075626 | 10° C | 80% | 1011.3 hPa | 11.68 mm | - | - | - |
| 1778075325 | 10° C | 81% | 1011.5 hPa | 11.68 mm | - | - | - |
| 1778075025 | 9.44° C | 82% | 1011.6 hPa | 11.68 mm | - | - | - |
| 1778074725 | 9.44° C | 83% | 1011.4 hPa | 11.68 mm | - | - | - |
| 1778074425 | 9.44° C | 82% | 1011.3 hPa | 11.68 mm | - | - | - |
| 1778074124 | 9.44° C | 85% | 1011.1 hPa | 11.68 mm | - | - | - |
| 1778073824 | 8.89° C | 85% | 1011 hPa | 11.68 mm | - | - | - |
| 1778073524 | 8.89° C | 85% | 1011 hPa | 11.68 mm | - | - | - |
| 1778073222 | 8.89° C | 83% | 1011.1 hPa | 11.68 mm | - | - | - |
| 1778072922 | 8.89° C | 84% | 1011.1 hPa | 11.68 mm | - | - | - |
| 1778072621 | 8.89° C | 84% | 1010.8 hPa | 11.68 mm | - | - | - |
| 1778072321 | 8.89° C | 86% | 1010.8 hPa | 11.68 mm | - | - | - |
| 1778072021 | 8.89° C | 85% | 1010.8 hPa | 11.68 mm | - | - | - |
| 1778071721 | 8.33° C | 86% | 1010.7 hPa | 11.68 mm | - | - | - |
| 1778071422 | 8.33° C | 86% | 1010.6 hPa | 11.68 mm | - | - | - |
| 1778071120 | 8.33° C | 87% | 1010.4 hPa | 11.68 mm | - | - | - |
| 1778070820 | 8.33° C | 86% | 1010.5 hPa | 11.68 mm | - | - | - |
| 1778070520 | 7.78° C | 87% | 1010.5 hPa | 11.68 mm | - | - | - |
| 1778070220 | 8.33° C | 88% | 1010.5 hPa | 11.68 mm | - | - | - |
| 1778069919 | 7.78° C | 87% | 1010.5 hPa | 11.68 mm | - | - | - |
| 1778069619 | 7.78° C | 88% | 1010.3 hPa | 11.68 mm | - | - | - |
* Rain since midnight (hover to see other rain measurements)
** Current wind speed in m/s (hover to see current wind gust speed)